• In Sweden
  • List of Countries
  • For 7 days
  • Water Temperature
  • Satellite Maps
  • Weather Map
  • Weather Widgets
  • user-avatar
    Login

    Hourly Weather Kalat

    Today, 21 January, Sunday

    Time Temperature Precipitation Wind Pressure Humidity
    00:00 -16°C° 0 mm 4 mps 468 mmHg 20%
    01:00 -16°C° 0 mm 4 mps 468 mmHg 19%
    02:00 -16°C° 0 mm 4 mps 468 mmHg 18%
    03:00 -16°C° 0 mm 4 mps 468 mmHg 18%
    04:00 -16°C° 0 mm 4 mps 467 mmHg 18%
    05:00 -16°C° 0 mm 4 mps 467 mmHg 17%
    06:00 -16°C° 0 mm 4 mps 467 mmHg 18%
    07:00 -16°C° 0 mm 4 mps 467 mmHg 18%
    08:00 -16°C° 0 mm 4 mps 467 mmHg 19%
    09:00 -14°C° 0 mm 4 mps 469 mmHg 29%
    10:00 -10°C° 0 mm 4 mps 470 mmHg 40%
    11:00 -7°C° 0 mm 3 mps 472 mmHg 50%
    12:00 -6°C° 0 mm 3 mps 472 mmHg 51%
    13:00 -6°C° 0 mm 3 mps 473 mmHg 52%
    14:00 -5°C° 0 mm 3 mps 473 mmHg 53%
    15:00 -7°C° 0 mm 3 mps 471 mmHg 53%
    16:00 -9°C° 0 mm 3 mps 470 mmHg 52%
    17:00 -12°C° 0 mm 3 mps 468 mmHg 52%
    18:00 -15°C° 0 mm 4 mps 468 mmHg 49%
    19:00 -16°C° 0 mm 4 mps 467 mmHg 45%
    20:00 -18°C° 0 mm 4 mps 467 mmHg 41%
    21:00 -18°C° 0 mm 4 mps 467 mmHg 39%
    22:00 -18°C° 0 mm 4 mps 467 mmHg 36%
    23:00 -18°C° 0 mm 4 mps 467 mmHg 34%

    Tomorrow, 22 January, Monday

    Time Temperature Precipitation Wind Pressure Humidity
    00:00 -19°C° 0 mm 4 mps 467 mmHg 33%
    01:00 -19°C° 0 mm 4 mps 467 mmHg 32%
    02:00 -19°C° 0 mm 4 mps 466 mmHg 32%
    03:00 -19°C° 0 mm 4 mps 466 mmHg 32%
    04:00 -19°C° 0 mm 4 mps 466 mmHg 32%
    05:00 -19°C° 0 mm 4 mps 466 mmHg 32%
    06:00 -19°C° 0 mm 4 mps 466 mmHg 32%
    07:00 -19°C° 0 mm 4 mps 466 mmHg 31%
    08:00 -19°C° 0 mm 4 mps 466 mmHg 31%
    09:00 -16°C° 0 mm 4 mps 468 mmHg 37%
    10:00 -13°C° 0 mm 3 mps 470 mmHg 43%
    11:00 -9°C° 0 mm 3 mps 471 mmHg 49%
    12:00 -9°C° 0 mm 3 mps 471 mmHg 49%
    13:00 -8°C° 0 mm 3 mps 471 mmHg 48%
    14:00 -7°C° 0 mm 2 mps 471 mmHg 47%
    15:00 -9°C° 0 mm 2 mps 470 mmHg 50%
    16:00 -12°C° 0 mm 2 mps 468 mmHg 53%
    17:00 -14°C° 0 mm 2 mps 467 mmHg 56%
    18:00 -15°C° 0 mm 2 mps 467 mmHg 53%
    19:00 -17°C° 0 mm 3 mps 466 mmHg 49%
    20:00 -18°C° 0 mm 3 mps 466 mmHg 46%
    21:00 -18°C° 0 mm 3 mps 466 mmHg 44%
    22:00 -19°C° 0 mm 3 mps 466 mmHg 42%
    23:00 -19°C° 0 mm 3 mps 466 mmHg 40%

    Day after tomorrow, 23 January, Tuesday

    Time Temperature Precipitation Wind Pressure Humidity
    00:00 -19°C° 0 mm 3 mps 466 mmHg 40%
    01:00 -19°C° 0 mm 3 mps 466 mmHg 39%
    02:00 -19°C° 0 mm 3 mps 465 mmHg 38%
    03:00 -21°C° 0 mm 3 mps 465 mmHg 38%
    04:00 -21°C° 0 mm 3 mps 465 mmHg 38%
    05:00 -21°C° 0 mm 3 mps 465 mmHg 38%
    06:00 -21°C° 0 mm 3 mps 465 mmHg 38%
    07:00 -21°C° 0 mm 3 mps 465 mmHg 39%
    08:00 -19°C° 0 mm 3 mps 465 mmHg 39%
    09:00 -16°C° 0 mm 2 mps 467 mmHg 41%
    10:00 -14°C° 0 mm 2 mps 468 mmHg 43%
    11:00 -9°C° 0 mm 1 mps 470 mmHg 44%
    12:00 -9°C° 0 mm 1 mps 470 mmHg 44%
    13:00 -8°C° 0 mm 1 mps 469 mmHg 44%
    14:00 -8°C° 0 mm 1 mps 469 mmHg 43%
    15:00 -10°C° 0 mm 1 mps 468 mmHg 48%
    16:00 -11°C° 0 mm 1 mps 467 mmHg 53%
    17:00 -13°C° 0 mm 0 mps 465 mmHg 57%
    18:00 -14°C° 0 mm 1 mps 465 mmHg 56%
    19:00 -17°C° 0 mm 2 mps 465 mmHg 55%
    20:00 -18°C° 0 mm 2 mps 465 mmHg 53%
    21:00 -19°C° 0 mm 3 mps 464 mmHg 50%
    22:00 -19°C° 0 mm 3 mps 464 mmHg 48%
    23:00 -19°C° 0 mm 3 mps 464 mmHg 45%

    24 January, Wednesday

    Time Temperature Precipitation Wind Pressure Humidity
    00:00 -19°C° 0 mm 3 mps 464 mmHg 41%
    01:00 -19°C° 0 mm 3 mps 464 mmHg 38%
    02:00 -19°C° 0 mm 3 mps 464 mmHg 35%
    03:00 -19°C° 0 mm 3 mps 464 mmHg 31%
    04:00 -19°C° 0 mm 3 mps 463 mmHg 28%
    05:00 -18°C° 0 mm 2 mps 463 mmHg 25%
    06:00 -18°C° 0 mm 2 mps 464 mmHg 24%
    07:00 -18°C° 0 mm 2 mps 464 mmHg 23%
    08:00 -18°C° 0 mm 2 mps 464 mmHg 22%
    09:00 -15°C° 0 mm 2 mps 466 mmHg 26%
    10:00 -10°C° 0 mm 1 mps 468 mmHg 30%
    11:00 -8°C° 0 mm 1 mps 469 mmHg 35%
    12:00 -7°C° 0 mm 1 mps 469 mmHg 35%
    13:00 -7°C° 0 mm 1 mps 469 mmHg 35%
    14:00 -7°C° 0 mm 1 mps 469 mmHg 36%
    15:00 -8°C° 0 mm 1 mps 468 mmHg 41%
    16:00 -10°C° 0 mm 1 mps 467 mmHg 46%
    17:00 -11°C° 0 mm 1 mps 466 mmHg 51%
    18:00 -12°C° 0 mm 1 mps 466 mmHg 51%
    19:00 -15°C° 0 mm 2 mps 465 mmHg 51%
    20:00 -16°C° 0 mm 2 mps 465 mmHg 51%
    21:00 -17°C° 0 mm 2 mps 465 mmHg 50%
    22:00 -17°C° 0 mm 2 mps 465 mmHg 50%
    23:00 -17°C° 0 mm 2 mps 465 mmHg 50%

    25 January, Thursday

    Time Temperature Precipitation Wind Pressure Humidity
    00:00 -18°C° 0 mm 2 mps 465 mmHg 50%
    01:00 -18°C° 0 mm 2 mps 464 mmHg 50%
    02:00 -18°C° 0 mm 2 mps 464 mmHg 51%
    03:00 -18°C° 0 mm 2 mps 464 mmHg 52%
    04:00 -18°C° 0 mm 2 mps 464 mmHg 53%
    05:00 -18°C° 0 mm 2 mps 464 mmHg 55%
    06:00 -18°C° 0 mm 2 mps 465 mmHg 57%
    07:00 -18°C° 0 mm 2 mps 465 mmHg 59%
    08:00 -18°C° 0 mm 2 mps 465 mmHg 61%
    09:00 -17°C° 0 mm 3 mps 466 mmHg 62%
    10:00 -16°C° 0 mm 3 mps 467 mmHg 62%
    11:00 -14°C° 0 mm 3 mps 469 mmHg 62%
    12:00 -14°C° 0 mm 3 mps 468 mmHg 64%
    13:00 -13°C° 0 mm 3 mps 468 mmHg 65%
    14:00 -13°C° 0 mm 3 mps 468 mmHg 67%
    15:00 -14°C° 0 mm 3 mps 468 mmHg 71%
    16:00 -15°C° 0 mm 3 mps 467 mmHg 76%
    17:00 -16°C° 0 mm 3 mps 466 mmHg 80%
    18:00 -17°C° 0 mm 3 mps 466 mmHg 81%
    19:00 -18°C° 0 mm 3 mps 466 mmHg 82%
    20:00 -19°C° 0 mm 3 mps 466 mmHg 83%
    21:00 -19°C° 0 mm 3 mps 466 mmHg 83%
    22:00 -18°C° 0 mm 2 mps 466 mmHg 83%
    23:00 -18°C° 0 mm 2 mps 466 mmHg 83%

    26 January, Friday

    Time Temperature Precipitation Wind Pressure Humidity
    00:00 -18°C° 0 mm 2 mps 466 mmHg 84%
    01:00 -19°C° 0 mm 2 mps 466 mmHg 84%
    02:00 -19°C° 0 mm 2 mps 466 mmHg 84%
    03:00 -19°C° 0 mm 2 mps 465 mmHg 84%
    04:00 -19°C° 0 mm 2 mps 465 mmHg 84%
    05:00 -22°C° 0 mm 3 mps 465 mmHg 85%
    06:00 -22°C° 0 mm 3 mps 465 mmHg 84%
    07:00 -22°C° 0 mm 3 mps 465 mmHg 83%
    08:00 -22°C° 0 mm 3 mps 465 mmHg 82%
    09:00 -18°C° 0 mm 2 mps 466 mmHg 76%
    10:00 -16°C° 0 mm 2 mps 468 mmHg 70%
    11:00 -14°C° 0 mm 2 mps 469 mmHg 65%
    12:00 -14°C° 0 mm 2 mps 469 mmHg 64%
    13:00 -14°C° 0 mm 3 mps 469 mmHg 63%
    14:00 -14°C° 0 mm 3 mps 468 mmHg 62%
    15:00 -15°C° 0 mm 3 mps 467 mmHg 66%
    16:00 -15°C° 0 mm 2 mps 466 mmHg 71%
    17:00 -17°C° 0 mm 2 mps 465 mmHg 76%
    18:00 -18°C° 0 mm 2 mps 465 mmHg 76%
    19:00 -21°C° 0 mm 3 mps 465 mmHg 77%
    20:00 -22°C° 0 mm 3 mps 464 mmHg 78%
    21:00 -23°C° 0 mm 3 mps 464 mmHg 76%
    22:00 -23°C° 0 mm 3 mps 464 mmHg 74%
    23:00 -23°C° 0 mm 3 mps 464 mmHg 72%
    Show more